User: anonymous   Login
Location: Unspecified
(0.0000°N, 0.0000°E)
Time: 11:15:17
(UTC+00:00)
Language:

Oscar 19 - Orbit

View from above orbital plane
View from above orbital plane
View from above satellite
View from above satellite

Ground track
Ground track

The orbit data is extracted from the following two-line orbital elements,

1 20442U 90005G   19344.09653307 -.00000005  00000-0  14405-4 0  9994
2 20442  98.6690 285.9513 0011812   1.1507 358.9702 14.32940135561358
Epoch (UTC): 10 December 2019 02:19:00
Eccentricity: 0.0011812
inclination: 98.6690°
perigee height: 773 km
apogee height: 790 km
right ascension of ascending node: 285.9513°
argument of perigee: 1.1507°
revolutions per day: 14.32940135
mean anomaly at epoch: 358.9702°
orbit number at epoch: 56135

The dashed part of the orbit path shows where the satellite is in the earth's shadow,  

DLR